Location: Unspecified
(0.0000°N, 0.0000°E)
Time: 23:11:51
(UTC+02:00)

Cosmos 1733 Rocket - Visible Passes

Search period start: 20 October 2014 00:00
Search period end: 29 October 2014 23:00
Orbit: 604 x 631 km, 82.5° (Epoch: 20 October)

Date Brightness Start Highest point End Pass type
(mag) Time Alt. Az. Time Alt. Az. Time Alt. Az.
20 Oct 3.5 20:35:31 10° NNW 20:39:47 64° W 20:44:07 10° S visible
21 Oct 5.3 20:52:59 10° NW 20:56:40 27° W 21:00:23 10° SSW visible
22 Oct 6.4 21:11:43 10° WNW 21:13:32 12° W 21:15:22 10° WSW visible
24 Oct 3.7 20:05:25 10° NNW 20:09:42 63° W 20:14:02 10° S visible
25 Oct 5.5 20:22:53 10° NW 20:26:34 27° W 20:30:17 10° SSW visible
26 Oct 6.3 05:54:49 10° SE 05:57:37 17° E 06:00:22 10° NE visible
26 Oct 6.5 19:41:40 10° WNW 19:43:26 12° W 19:45:14 10° WSW visible
27 Oct 4.9 06:10:26 10° SSE 06:14:29 36° E 06:18:29 10° NNE visible
